Tracking 21473 objects as of 27-Sep-2020
HD Live streaming from Space Station
objects crossing your sky now

STARLINK-1398

Track STARLINK-1398 now!
10-day predictions
STARLINK-1398 is classified as:


NORAD ID: 45699
Int'l Code: 2020-035AU
Perigee: 519.9 km
Apogee: 521.5 km
Inclination: 53.0 °
Period: 94.9 minutes
Semi major axis: 6891 km
RCS: Unknown
Launch date: June 4, 2020
Source: United States (US)
Launch site: AIR FORCE EASTERN TEST RANGE (AFETR)
aabbcc
Your satellite tracking list
Your tracking list is empty




NASA's NSSDC Master Catalog

Two Line Element Set (TLE):
1 45699U 20035AU  20271.58337963 -.00983312 +00000-0 -52674-1 0  9992
2 45699 052.9968 326.4363 0001144 087.9104 211.4159 15.17459023001753
Source of the keplerian elements: AFSPC